Mobile, AL

5:47 PM CDT on June 27, 2017 (GMT -0500)
Mobile Regional

Weather History for KMOB - September, 2013

Change the Weather History Date:

Monday, September 2, 2013

  Actual Average Record
Temperature  
Mean Temperature 84 °F 80 °F  
Max Temperature 92 °F 90 °F 98 °F (1989)
Min Temperature 76 °F 72 °F 61 °F (1882)
Degree Days  
Heating Degree Days 0 0  
Month to date heating degree days 0 0  
Since 1 July heating degree days 0 0  
Cooling Degree Days 19 16  
Month to date cooling degree days 37 32  
Year to date cooling degree days 1867 1959  
Growing Degree Days 33 (Base 50)    
Moisture  
Dew Point 74 °F    
Average Humidity 72    
Maximum Humidity 94    
Minimum Humidity 49    
Precipitation  
Precipitation 0.00 in 0.18 in 5.54 in (1950)
Month to date precipitation T 0.36  
Year to date precipitation 51.70 47.52  
Sea Level Pressure  
Sea Level Pressure 29.94 in    
Wind  
Wind Speed 5 mph (SW)    
Max Wind Speed 14 mph    
Max Gust Speed 16 mph    
Visibility 10 miles    
Events Thunderstorm    
T = Trace of Precipitation, MM = Missing Value Source: NWS Daily Summary

Daily Weather History Graph

Daily Weather History Graph

Search for Another Location

Airport or City:

Trip Planner

Search our weather history database for the weather conditions in past years. The results will help you decide how hot, cold, wet, or windy it might be!

Date:

Astronomy

Sep. 02, 2013 Rise Set
Actual Time 6:30 AM CDT 7:14 PM CDT
Civil Twilight 6:05 AM CDT 7:38 PM CDT
Nautical Twilight 5:36 AM CDT 8:07 PM CDT
Astronomical Twilight 5:07 AM CDT 8:37 PM CDT
Moon 3:53 AM CDT (9/2) 5:22 PM CDT (9/2)
Length of Visible Light 13h 33m
Length of Day
12h 44m
Waning Crescent, 8% of the Moon is Illuminated
Sep 2
Waning Crescent
Sep 5
New
Sep 12
First Quarter
Sep 19
Full
Sep 26
Last Quarter

Hourly Weather History & Observations

Time (CDT) Temp. Heat Index Dew Point Humidity Pressure Visibility Wind Dir Wind Speed Gust Speed Precip Events Conditions
12:56 AM 78.1 °F - 73.9 °F 87% 29.93 in 10.0 mi South 4.6 mph - N/A   Clear
1:56 AM 79.0 °F - 75.0 °F 88% 29.93 in 10.0 mi SSW 5.8 mph - N/A   Mostly Cloudy
2:56 AM 78.1 °F - 75.0 °F 90% 29.92 in 10.0 mi South 4.6 mph - N/A   Clear
3:56 AM 78.1 °F - 75.0 °F 90% 29.93 in 10.0 mi SW 3.5 mph - N/A   Partly Cloudy
4:56 AM 77.0 °F - 75.0 °F 94% 29.93 in 10.0 mi SW 3.5 mph - N/A   Clear
5:56 AM 77.0 °F - 73.9 °F 90% 29.94 in 7.0 mi Calm Calm - N/A   Scattered Clouds
6:56 AM 77.0 °F - 73.9 °F 90% 29.94 in 7.0 mi West 4.6 mph - N/A   Scattered Clouds
7:56 AM 80.1 °F 85.1 °F 75.0 °F 85% 29.96 in 10.0 mi West 5.8 mph - N/A   Mostly Cloudy
8:56 AM 82.9 °F 89.4 °F 73.9 °F 74% 29.98 in 10.0 mi West 6.9 mph - N/A   Scattered Clouds
9:56 AM 84.9 °F 92.1 °F 73.9 °F 69% 29.99 in 10.0 mi WNW 5.8 mph - N/A   Scattered Clouds
10:56 AM 88.0 °F 95.6 °F 73.0 °F 61% 30.00 in 10.0 mi WNW 5.8 mph - N/A   Mostly Cloudy
11:26 AM 87.8 °F 95.6 °F 73.4 °F 62% 30.01 in 10.0 mi Variable 3.5 mph - N/A   Mostly Cloudy
11:41 AM 89.6 °F 98.2 °F 73.4 °F 59% 30.00 in 10.0 mi West 6.9 mph - N/A   Mostly Cloudy
11:56 AM 89.1 °F 97.0 °F 73.0 °F 59% 29.99 in 10.0 mi West 4.6 mph - N/A   Mostly Cloudy
12:56 PM 87.1 °F 94.5 °F 73.0 °F 63% 29.97 in 10.0 mi West 4.6 mph - N/A   Scattered Clouds
1:56 PM 91.0 °F 96.6 °F 70.0 °F 50% 29.94 in 7.0 mi Variable 5.8 mph - N/A   Mostly Cloudy
2:56 PM 86.0 °F 93.8 °F 73.9 °F 67% 29.91 in 10.0 mi South 11.5 mph - N/A   Mostly Cloudy
3:56 PM 87.1 °F 95.4 °F 73.9 °F 65% 29.91 in 10.0 mi NW 6.9 mph - N/A Thunderstorm Thunderstorm
4:23 PM 89.6 °F 96.2 °F 71.6 °F 55% 29.91 in 10.0 mi Calm Calm - N/A   Scattered Clouds
4:56 PM 90.0 °F 96.9 °F 72.0 °F 55% 29.89 in 10.0 mi SSE 3.5 mph - N/A   Scattered Clouds
5:56 PM 87.1 °F 95.4 °F 73.9 °F 65% 29.90 in 10.0 mi SE 6.9 mph - N/A   Mostly Cloudy
6:56 PM 84.0 °F 91.2 °F 73.9 °F 72% 29.90 in 10.0 mi SSW 8.1 mph - N/A   Scattered Clouds
7:56 PM 82.0 °F 87.9 °F 73.9 °F 76% 29.91 in 10.0 mi South 6.9 mph - 0.01 in   Partly Cloudy
8:56 PM 81.0 °F 86.2 °F 73.9 °F 79% 29.93 in 10.0 mi Calm Calm - N/A   Partly Cloudy
9:56 PM 79.0 °F - 75.0 °F 88% 29.94 in 10.0 mi Calm Calm - N/A   Clear
10:56 PM 79.0 °F - 75.0 °F 88% 29.94 in 10.0 mi South 4.6 mph - N/A   Clear
11:56 PM 79.0 °F - 73.9 °F 84% 29.93 in 10.0 mi South 3.5 mph - N/A   Clear